Regional Weather Roundup
Issued by NWS Goodland, KS

Home | Current Version | Previous Version | Text Only | Print | Product List | Glossary On
Versions: 1 2 3 4 5 6 7 8 9 10 11 12 13 14 15 16 17 18 19 20 21 22 23 24 25 26 27 28 29 30 31 32 33 34 35 36 37 38 39 40 41 42 43 44 45 46 47 48 49 50
000
ASUS43 KGLD 301459
RWRGLD

GOODLAND FORECAST AREA HOURLY WEATHER ROUNDUP
NATIONAL WEATHER SERVICE GOODLAND KS
900 AM MDT SAT JUL 30 2016

...OFFICIAL OBSERVATIONS...

CITY           SKY/WX    TMP DP  RH WIND       PRES   REMARKS
GOODLAND KS    SUNNY     73  63  70 S9        30.02S
HILL CITY KS   SUNNY     79  67  66 S8        30.00S
IMPERIAL NEB   CLOUDY    71  62  73 S8        30.01R
MCCOOK NEB     SUNNY     75  65  70 S7        30.00S
AKRON CO       SUNNY     71  58  63 S6        30.05F
BURLINGTON CO  SUNNY     74  58  57 S9        30.04F
LIMON CO       SUNNY     67  58  72 S8        30.09F
$$

...UNOFFICIAL OBSERVATIONS...

CITY           SKY/WX    TMP DP  RH WIND       PRES   REMARKS
LENORA KS        N/A     77  32  19 MISG        N/A
NORTON KS      SUNNY     75  63  64 SE7       30.00S
SHARON SPRINGS   N/A     74  65  74 CALM        N/A
KIT CARSON CO    N/A     72  59  63 MISG        N/A
YUMA CO          N/A     72  61  67 SW7         N/A
$$



USA.gov is the U.S. government's official web portal to all federal, state and local government web resources and services.